HZA2 FZIC-FZAA

Flight info

Callsign HZA2
Flight time 2h 3m
Altitude 38000
Route IBRUX DCT XESIR UB535 GURUT DCT ULVAS ULVAS1B
Aircraft A320/M-SDE3FGHIRWY/LB1

Departure

Time 2026-04-28 18:32
Airport Bangoka International Airport (FZIC)

Arrival

Time 2026-04-28 20:35
Airport Ndjili International Airport (FZAA)
Time Latitude Longitude Altitude Speed Heading
2026-04-28 18:11 0.49129 25.32996 1416 ft 0 kts 33°
2026-04-28 18:25 0.49097 25.32978 1413 ft 8 kts 343°
2026-04-28 18:25 0.49091 25.32964 1413 ft 8 kts 290°
2026-04-28 18:26 0.49132 25.32901 1413 ft 14 kts 304°
2026-04-28 18:26 0.49187 25.32819 1413 ft 12 kts 304°
2026-04-28 18:26 0.49235 25.32748 1413 ft 12 kts 304°
2026-04-28 18:26 0.49248 25.32668 1412 ft 13 kts 267°
2026-04-28 18:27 0.49247 25.32659 1415 ft 0 kts 267°
2026-04-28 18:28 0.49247 25.32646 1417 ft 8 kts 266°
2026-04-28 18:28 0.49217 25.32595 1415 ft 7 kts 221°
2026-04-28 18:28 0.49190 25.32571 1413 ft 3 kts 221°
2026-04-28 18:28 0.49175 25.32563 1413 ft 2 kts 209°
2026-04-28 18:29 0.49171 25.32560 1413 ft 0 kts 209°
2026-04-28 18:29 0.49169 25.32559 1413 ft 3 kts 209°
2026-04-28 18:29 0.49066 25.32551 1414 ft 20 kts 166°
2026-04-28 18:30 0.49025 25.32583 1414 ft 0 kts 129°
2026-04-28 18:31 0.49007 25.32609 1418 ft 21 kts 124°
2026-04-28 18:31 0.48745 25.32984 1416 ft 105 kts 125°
2026-04-28 18:31 0.48193 25.33763 1425 ft 166 kts 124°
2026-04-28 18:32 0.47499 25.34721 2109 ft 171 kts 126°
2026-04-28 18:32 0.46788 25.35688 2933 ft 174 kts 127°
2026-04-28 18:32 0.46058 25.36685 3521 ft 188 kts 127°
2026-04-28 18:32 0.45233 25.37821 3833 ft 216 kts 126°
2026-04-28 18:33 0.44233 25.39075 4196 ft 246 kts 139°
2026-04-28 18:33 0.42648 25.39879 4723 ft 268 kts 169°
2026-04-28 18:33 0.40790 25.39825 5539 ft 277 kts 194°
2026-04-28 18:33 0.39031 25.39007 6428 ft 285 kts 217°
2026-04-28 18:34 0.37792 25.37461 7277 ft 291 kts 246°
2026-04-28 18:34 0.37170 25.35523 8162 ft 295 kts 254°
2026-04-28 18:34 0.36595 25.33555 9163 ft 296 kts 255°
2026-04-28 18:34 0.36002 25.31544 9951 ft 306 kts 255°
2026-04-28 18:35 0.35399 25.29485 10705 ft 312 kts 255°
2026-04-28 18:35 0.34799 25.27362 11281 ft 328 kts 255°
2026-04-28 18:35 0.34125 25.25125 11802 ft 340 kts 253°
2026-04-28 18:35 0.33405 25.22873 12652 ft 342 kts 252°
2026-04-28 18:36 0.32662 25.20606 13472 ft 345 kts 252°
2026-04-28 18:36 0.31911 25.18315 14208 ft 348 kts 252°
2026-04-28 18:36 0.31162 25.16000 14902 ft 352 kts 252°
2026-04-28 18:36 0.30419 25.13663 15588 ft 355 kts 252°
2026-04-28 18:37 0.29677 25.11295 16246 ft 360 kts 252°
2026-04-28 18:37 0.28928 25.08895 16905 ft 364 kts 252°
2026-04-28 18:37 0.28173 25.06465 17571 ft 368 kts 252°
2026-04-28 18:37 0.27413 25.04008 18228 ft 372 kts 252°
2026-04-28 18:38 0.26646 25.01525 18783 ft 376 kts 252°
2026-04-28 18:38 0.25869 24.99019 19335 ft 379 kts 252°
2026-04-28 18:38 0.25084 24.96493 19912 ft 383 kts 252°
2026-04-28 18:38 0.24289 24.93941 20480 ft 386 kts 252°
2026-04-28 18:39 0.23487 24.91363 21024 ft 390 kts 252°
2026-04-28 18:39 0.22678 24.88762 21583 ft 394 kts 252°
2026-04-28 18:39 0.21859 24.86133 22136 ft 398 kts 252°
2026-04-28 18:39 0.21044 24.83513 22681 ft 402 kts 252°
2026-04-28 18:40 0.20210 24.80836 23227 ft 406 kts 252°
2026-04-28 18:40 0.19367 24.78130 23728 ft 410 kts 252°
2026-04-28 18:40 0.18517 24.75400 24173 ft 413 kts 252°
2026-04-28 18:40 0.17658 24.72640 24627 ft 417 kts 252°
2026-04-28 18:41 0.16793 24.69870 25067 ft 420 kts 252°
2026-04-28 18:41 0.15920 24.67072 25501 ft 423 kts 251°
2026-04-28 18:41 0.15044 24.64253 25932 ft 426 kts 251°
2026-04-28 18:41 0.14162 24.61414 26343 ft 430 kts 251°
2026-04-28 18:42 0.13234 24.58572 26758 ft 432 kts 247°
2026-04-28 18:42 0.11967 24.55844 27154 ft 434 kts 242°
2026-04-28 18:42 0.10614 24.53130 27556 ft 437 kts 242°
2026-04-28 18:42 0.09253 24.50405 27931 ft 440 kts 242°
2026-04-28 18:43 0.07882 24.47657 28316 ft 443 kts 242°
2026-04-28 18:43 0.06504 24.44893 28713 ft 446 kts 242°
2026-04-28 18:43 0.05119 24.42114 29073 ft 449 kts 242°
2026-04-28 18:43 0.03725 24.39312 29441 ft 452 kts 242°
2026-04-28 18:44 0.02323 24.36490 29800 ft 455 kts 242°
2026-04-28 18:44 -0.00508 24.30804 30406 ft 460 kts 242°
2026-04-28 18:44 -0.01921 24.27970 30693 ft 463 kts 242°
2026-04-28 18:45 -0.03358 24.25085 30972 ft 465 kts 242°
2026-04-28 18:45 -0.04800 24.22185 31261 ft 467 kts 242°
2026-04-28 18:45 -0.06248 24.19271 31538 ft 469 kts 242°
2026-04-28 18:45 -0.07696 24.16344 31913 ft 469 kts 242°
2026-04-28 18:46 -0.09139 24.13426 32322 ft 468 kts 242°
2026-04-28 18:46 -0.10586 24.10509 32718 ft 468 kts 242°
2026-04-28 18:46 -0.12036 24.07600 33134 ft 467 kts 242°
2026-04-28 18:46 -0.13483 24.04702 33578 ft 465 kts 242°
2026-04-28 18:47 -0.14922 24.01819 34034 ft 463 kts 242°
2026-04-28 18:47 -0.16352 23.98943 34393 ft 461 kts 242°
2026-04-28 18:47 -0.17778 23.96073 34720 ft 461 kts 242°
2026-04-28 18:47 -0.19204 23.93198 35061 ft 461 kts 242°
2026-04-28 18:48 -0.20630 23.90324 35401 ft 462 kts 242°
2026-04-28 18:48 -0.22057 23.87455 35726 ft 461 kts 242°
2026-04-28 18:48 -0.23488 23.84583 35858 ft 461 kts 242°
2026-04-28 18:48 -0.24902 23.81745 35886 ft 453 kts 242°
2026-04-28 18:49 -0.26769 23.77993 35884 ft 449 kts 242°
2026-04-28 18:49 -0.30459 23.70578 35874 ft 446 kts 242°
2026-04-28 18:50 -0.33219 23.65028 35879 ft 446 kts 242°
2026-04-28 18:50 -0.35988 23.59473 35872 ft 446 kts 242°
2026-04-28 18:51 -0.38750 23.53925 35873 ft 446 kts 242°
2026-04-28 18:51 -0.41511 23.48371 35864 ft 446 kts 243°
2026-04-28 18:52 -0.44273 23.42818 35864 ft 446 kts 243°
2026-04-28 18:52 -0.47043 23.37263 35861 ft 447 kts 242°
2026-04-28 18:53 -0.49849 23.31727 35858 ft 447 kts 242°
2026-04-28 18:53 -0.52659 23.26191 35857 ft 447 kts 242°
2026-04-28 18:54 -0.55467 23.20650 35841 ft 447 kts 242°
2026-04-28 18:54 -0.58262 23.15101 35838 ft 447 kts 243°
2026-04-28 18:55 -0.60580 23.10488 35831 ft 446 kts 242°
2026-04-28 18:55 -0.63859 23.04025 35827 ft 447 kts 242°
2026-04-28 18:56 -0.66656 22.98520 35817 ft 448 kts 242°
2026-04-28 18:56 -0.69481 22.92949 35830 ft 450 kts 242°
2026-04-28 18:57 -0.72293 22.87378 35838 ft 448 kts 242°
2026-04-28 18:57 -0.75088 22.81834 35825 ft 445 kts 243°
2026-04-28 18:58 -0.77872 22.76307 35823 ft 446 kts 243°
2026-04-28 18:58 -0.80671 22.70769 35826 ft 447 kts 243°
2026-04-28 18:59 -0.83479 22.65219 35826 ft 448 kts 243°
2026-04-28 18:59 -0.86296 22.59658 35832 ft 448 kts 243°
2026-04-28 19:00 -0.89104 22.54087 35847 ft 449 kts 243°
2026-04-28 19:00 -0.91914 22.48523 35843 ft 448 kts 243°
2026-04-28 19:01 -0.94721 22.42972 35858 ft 448 kts 243°
2026-04-28 19:01 -0.97529 22.37421 35856 ft 447 kts 243°
2026-04-28 19:02 -1.00312 22.31916 35854 ft 446 kts 243°
2026-04-28 19:02 -1.03106 22.26375 35851 ft 446 kts 243°
2026-04-28 19:03 -1.05896 22.20842 35837 ft 446 kts 243°
2026-04-28 19:03 -1.08701 22.15310 35826 ft 446 kts 243°
2026-04-28 19:04 -1.11500 22.09773 35821 ft 446 kts 243°
2026-04-28 19:04 -1.14287 22.04238 35805 ft 446 kts 243°
2026-04-28 19:05 -1.17078 21.98696 35808 ft 447 kts 242°
2026-04-28 19:05 -1.19890 21.93148 35816 ft 448 kts 242°
2026-04-28 19:06 -1.22242 21.88505 35807 ft 447 kts 242°
2026-04-28 19:06 -1.25501 21.82048 35814 ft 448 kts 242°
2026-04-28 19:07 -1.28309 21.76493 35823 ft 448 kts 242°
2026-04-28 19:07 -1.31117 21.70930 35840 ft 449 kts 243°
2026-04-28 19:08 -1.33445 21.66295 35845 ft 449 kts 243°
2026-04-28 19:08 -1.36184 21.60689 35840 ft 448 kts 243°
2026-04-28 19:09 -1.38900 21.55089 35843 ft 448 kts 243°
2026-04-28 19:09 -1.41649 21.49495 35841 ft 448 kts 242°
2026-04-28 19:10 -1.44086 21.43725 35856 ft 448 kts 253°
2026-04-28 19:10 -1.45699 21.37738 35862 ft 447 kts 250°
2026-04-28 19:11 -1.47063 21.34956 35821 ft 445 kts 231°
2026-04-28 19:11 -1.49389 21.32949 35736 ft 441 kts 204°
2026-04-28 19:11 -1.52229 21.31903 35849 ft 435 kts 194°
2026-04-28 19:11 -1.55072 21.30851 35838 ft 438 kts 210°
2026-04-28 19:12 -1.57272 21.28751 35730 ft 441 kts 237°
2026-04-28 19:12 -1.58468 21.25939 35851 ft 444 kts 258°
2026-04-28 19:12 -1.59407 21.19806 35871 ft 448 kts 262°
2026-04-28 19:13 -1.60302 21.13683 35867 ft 448 kts 262°
2026-04-28 19:13 -1.62099 21.07737 35843 ft 446 kts 239°
2026-04-28 19:14 -1.65487 21.02567 35819 ft 444 kts 244°
2026-04-28 19:14 -1.67826 20.96849 35819 ft 445 kts 249°
2026-04-28 19:15 -1.70142 20.91111 35821 ft 446 kts 245°
2026-04-28 19:15 -1.72343 20.86439 35830 ft 447 kts 243°
2026-04-28 19:16 -1.75624 20.79956 35839 ft 447 kts 242°
2026-04-28 19:16 -1.78412 20.74390 35840 ft 448 kts 243°
2026-04-28 19:17 -1.81144 20.68791 35847 ft 448 kts 243°
2026-04-28 19:17 -1.83867 20.63181 35852 ft 448 kts 243°
2026-04-28 19:18 -1.86602 20.57576 35856 ft 449 kts 243°
2026-04-28 19:18 -1.89344 20.51971 35857 ft 449 kts 243°
2026-04-28 19:19 -1.92083 20.46373 35857 ft 448 kts 243°
2026-04-28 19:19 -1.94806 20.40807 35858 ft 448 kts 243°
2026-04-28 19:20 -1.97544 20.35209 35862 ft 448 kts 244°
2026-04-28 19:20 -2.00270 20.29606 35858 ft 448 kts 244°
2026-04-28 19:21 -2.03002 20.24016 35862 ft 448 kts 243°
2026-04-28 19:21 -2.05736 20.18425 35855 ft 448 kts 243°
2026-04-28 19:22 -2.08005 20.13776 35859 ft 447 kts 244°
2026-04-28 19:22 -2.11185 20.07243 35854 ft 447 kts 244°
2026-04-28 19:23 -2.13915 20.01661 35856 ft 447 kts 244°
2026-04-28 19:23 -2.16643 19.96083 35849 ft 447 kts 244°
2026-04-28 19:24 -2.19373 19.90505 35850 ft 447 kts 244°
2026-04-28 19:24 -2.22103 19.84924 35849 ft 446 kts 244°
2026-04-28 19:25 -2.24855 19.79358 35846 ft 447 kts 244°
2026-04-28 19:25 -2.27602 19.73833 35850 ft 447 kts 244°
2026-04-28 19:26 -2.30355 19.68269 35858 ft 446 kts 244°
2026-04-28 19:26 -2.33105 19.62707 35853 ft 446 kts 244°
2026-04-28 19:27 -2.35853 19.57147 35849 ft 446 kts 244°
2026-04-28 19:27 -2.38608 19.51592 35854 ft 446 kts 244°
2026-04-28 19:28 -2.41358 19.46035 35858 ft 446 kts 244°
2026-04-28 19:28 -2.44106 19.40467 35858 ft 446 kts 244°
2026-04-28 19:29 -2.46386 19.35846 35859 ft 446 kts 244°
2026-04-28 19:29 -2.49604 19.29346 35860 ft 446 kts 244°
2026-04-28 19:30 -2.52354 19.23792 35866 ft 446 kts 244°
2026-04-28 19:30 -2.55101 19.18234 35864 ft 446 kts 244°
2026-04-28 19:31 -2.57848 19.12679 35864 ft 445 kts 244°
2026-04-28 19:31 -2.60586 19.07123 35862 ft 445 kts 244°
2026-04-28 19:32 -2.63327 19.01569 35863 ft 445 kts 244°
2026-04-28 19:32 -2.66071 18.96013 35865 ft 445 kts 244°
2026-04-28 19:33 -2.68813 18.90468 35864 ft 445 kts 244°
2026-04-28 19:33 -2.71560 18.84921 35863 ft 445 kts 244°
2026-04-28 19:34 -2.74304 18.79371 35863 ft 445 kts 244°
2026-04-28 19:34 -2.77051 18.73822 35866 ft 445 kts 244°
2026-04-28 19:35 -2.79793 18.68276 35873 ft 445 kts 244°
2026-04-28 19:35 -2.82533 18.62732 35873 ft 444 kts 244°
2026-04-28 19:36 -2.85271 18.57198 35875 ft 444 kts 244°
2026-04-28 19:36 -2.88009 18.51658 35874 ft 444 kts 244°
2026-04-28 19:37 -2.90283 18.47055 35870 ft 444 kts 244°
2026-04-28 19:37 -2.93481 18.40573 35885 ft 444 kts 244°
2026-04-28 19:38 -2.96220 18.35040 35890 ft 444 kts 244°
2026-04-28 19:38 -2.98938 18.29543 35893 ft 444 kts 244°
2026-04-28 19:39 -3.01673 18.24012 35895 ft 444 kts 244°
2026-04-28 19:39 -3.04412 18.18466 35898 ft 444 kts 244°
2026-04-28 19:40 -3.07142 18.12924 35899 ft 444 kts 244°
2026-04-28 19:40 -3.09874 18.07388 35898 ft 443 kts 244°
2026-04-28 19:41 -3.12605 18.01854 35896 ft 444 kts 244°
2026-04-28 19:41 -3.15349 17.96324 35900 ft 444 kts 244°
2026-04-28 19:42 -3.18088 17.90786 35901 ft 443 kts 244°
2026-04-28 19:42 -3.20355 17.86187 35898 ft 443 kts 244°
2026-04-28 19:43 -3.23544 17.79725 35897 ft 443 kts 244°
2026-04-28 19:43 -3.26268 17.74198 35892 ft 443 kts 244°
2026-04-28 19:44 -3.28991 17.68679 35902 ft 442 kts 244°
2026-04-28 19:44 -3.31706 17.63166 35900 ft 441 kts 244°
2026-04-28 19:45 -3.34421 17.57659 35899 ft 441 kts 244°
2026-04-28 19:45 -3.37142 17.52153 35897 ft 441 kts 244°
2026-04-28 19:46 -3.39999 17.46727 35892 ft 441 kts 235°
2026-04-28 19:46 -3.44140 17.42245 35892 ft 440 kts 221°
2026-04-28 19:47 -3.48711 17.38173 35897 ft 450 kts 221°
2026-04-28 19:47 -3.53463 17.33919 35899 ft 466 kts 221°
2026-04-28 19:48 -3.58342 17.29560 35901 ft 472 kts 221°
2026-04-28 19:48 -3.63226 17.25181 35857 ft 465 kts 221°
2026-04-28 19:49 -3.65598 17.23053 35700 ft 451 kts 221°
2026-04-28 19:49 -3.67900 17.20991 35563 ft 437 kts 221°
2026-04-28 19:49 -3.70136 17.18989 35421 ft 426 kts 221°
2026-04-28 19:49 -3.72326 17.17029 35106 ft 420 kts 221°
2026-04-28 19:50 -3.76647 17.13157 34294 ft 414 kts 221°
2026-04-28 19:50 -3.78785 17.11239 33871 ft 412 kts 221°
2026-04-28 19:50 -3.80226 17.09949 33559 ft 411 kts 221°
2026-04-28 19:51 -3.82348 17.08049 33133 ft 408 kts 221°
2026-04-28 19:51 -3.84425 17.06185 32737 ft 404 kts 221°
2026-04-28 19:51 -3.86534 17.04294 32351 ft 400 kts 221°
2026-04-28 19:51 -3.88597 17.02444 32005 ft 396 kts 221°
2026-04-28 19:52 -3.90614 17.00636 31643 ft 392 kts 221°
2026-04-28 19:52 -3.92663 16.98801 31267 ft 389 kts 221°
2026-04-28 19:52 -3.94672 16.97001 30898 ft 386 kts 221°
2026-04-28 19:52 -3.96637 16.95237 30533 ft 383 kts 222°
2026-04-28 19:53 -3.98606 16.93466 30167 ft 379 kts 222°
2026-04-28 19:53 -4.00567 16.91708 29762 ft 377 kts 222°
2026-04-28 19:53 -4.02512 16.89966 29326 ft 374 kts 222°
2026-04-28 19:53 -4.04443 16.88237 28901 ft 371 kts 222°
2026-04-28 19:54 -4.06356 16.86520 28483 ft 368 kts 222°
2026-04-28 19:54 -4.08255 16.84818 28065 ft 365 kts 222°
2026-04-28 19:54 -4.10136 16.83131 27654 ft 362 kts 222°
2026-04-28 19:54 -4.12003 16.81455 27245 ft 359 kts 222°
2026-04-28 19:55 -4.13854 16.79797 26849 ft 356 kts 222°
2026-04-28 19:55 -4.15693 16.78152 26451 ft 353 kts 222°
2026-04-28 19:55 -4.17519 16.76519 26055 ft 351 kts 222°
2026-04-28 19:55 -4.19326 16.74896 25665 ft 348 kts 222°
2026-04-28 19:56 -4.21216 16.73393 25282 ft 346 kts 211°
2026-04-28 19:56 -4.23380 16.72388 24901 ft 343 kts 197°
2026-04-28 19:56 -4.25719 16.71957 24521 ft 341 kts 182°
2026-04-28 19:56 -4.28087 16.71950 24134 ft 340 kts 180°
2026-04-28 19:57 -4.30449 16.71955 23934 ft 339 kts 180°
2026-04-28 19:57 -4.32806 16.71953 23915 ft 339 kts 180°
2026-04-28 19:57 -4.35170 16.71946 23920 ft 340 kts 181°
2026-04-28 19:57 -4.37538 16.71938 23920 ft 340 kts 181°
2026-04-28 19:58 -4.39902 16.72023 23921 ft 340 kts 171°
2026-04-28 19:58 -4.42138 16.72773 23926 ft 342 kts 152°
2026-04-28 19:58 -4.43999 16.74246 23927 ft 343 kts 131°
2026-04-28 19:58 -4.45254 16.76272 23923 ft 344 kts 111°
2026-04-28 19:59 -4.45754 16.78605 23920 ft 345 kts 91°
2026-04-28 19:59 -4.45439 16.80986 23921 ft 347 kts 71°
2026-04-28 19:59 -4.44346 16.83120 23921 ft 346 kts 51°
2026-04-28 19:59 -4.42598 16.84759 23916 ft 345 kts 31°
2026-04-28 20:00 -4.40408 16.85706 23922 ft 344 kts 11°
2026-04-28 20:00 -4.38040 16.85851 23923 ft 342 kts 352°
2026-04-28 20:00 -4.35765 16.85195 23922 ft 341 kts 332°
2026-04-28 20:00 -4.33872 16.83846 23924 ft 339 kts 313°
2026-04-28 20:01 -4.32501 16.81902 23923 ft 338 kts 295°
2026-04-28 20:01 -4.31570 16.79770 23922 ft 339 kts 291°
2026-04-28 20:01 -4.30730 16.77559 23921 ft 339 kts 289°
2026-04-28 20:01 -4.29837 16.75374 23920 ft 340 kts 299°
2026-04-28 20:02 -4.28373 16.73534 23926 ft 340 kts 319°
2026-04-28 20:02 -4.26342 16.72330 23927 ft 341 kts 340°
2026-04-28 20:02 -4.24010 16.71900 23926 ft 343 kts 356°
2026-04-28 20:02 -4.21626 16.71889 23918 ft 343 kts
2026-04-28 20:03 -4.19388 16.72684 23916 ft 344 kts 31°
2026-04-28 20:03 -4.17559 16.74213 23921 ft 344 kts 50°
2026-04-28 20:03 -4.16329 16.76260 23919 ft 345 kts 70°
2026-04-28 20:03 -4.15863 16.78599 23921 ft 344 kts 90°
2026-04-28 20:04 -4.16237 16.80953 23920 ft 343 kts 111°
2026-04-28 20:04 -4.17402 16.83019 23919 ft 342 kts 131°
2026-04-28 20:04 -4.19200 16.84553 23918 ft 341 kts 152°
2026-04-28 20:04 -4.21409 16.85366 23919 ft 340 kts 172°
2026-04-28 20:05 -4.23765 16.85557 23925 ft 340 kts 179°
2026-04-28 20:05 -4.26128 16.85594 23923 ft 340 kts 181°
2026-04-28 20:05 -4.28495 16.85568 23923 ft 340 kts 181°
2026-04-28 20:05 -4.30861 16.85520 23923 ft 340 kts 182°
2026-04-28 20:06 -4.33229 16.85477 23918 ft 340 kts 181°
2026-04-28 20:06 -4.35594 16.85449 23920 ft 340 kts 181°
2026-04-28 20:06 -4.37956 16.85347 23913 ft 339 kts 191°
2026-04-28 20:06 -4.40171 16.84582 23918 ft 337 kts 211°
2026-04-28 20:07 -4.41978 16.83115 23923 ft 336 kts 231°
2026-04-28 20:07 -4.42846 16.81836 23924 ft 336 kts 244°
2026-04-28 20:07 -4.43616 16.78831 23924 ft 336 kts 270°
2026-04-28 20:07 -4.43259 16.76531 23926 ft 337 kts 289°
2026-04-28 20:08 -4.42144 16.74475 23927 ft 338 kts 309°
2026-04-28 20:08 -4.40392 16.72909 23929 ft 340 kts 328°
2026-04-28 20:08 -4.38194 16.72050 23928 ft 342 kts 349°
2026-04-28 20:08 -4.35827 16.71846 23932 ft 343 kts 358°
2026-04-28 20:09 -4.33435 16.71807 23924 ft 343 kts 360°
2026-04-28 20:09 -4.31048 16.71833 23926 ft 344 kts
2026-04-28 20:09 -4.28687 16.71880 23926 ft 344 kts
2026-04-28 20:09 -4.26298 16.71923 23925 ft 344 kts
2026-04-28 20:10 -4.23905 16.71951 23931 ft 344 kts 360°
2026-04-28 20:10 -4.21517 16.72050 23917 ft 344 kts
2026-04-28 20:10 -4.19261 16.72823 23922 ft 344 kts 30°
2026-04-28 20:10 -4.17422 16.74334 23927 ft 344 kts 51°
2026-04-28 20:11 -4.16223 16.76398 23924 ft 344 kts 71°
2026-04-28 20:11 -4.15814 16.78745 23924 ft 344 kts 92°
2026-04-28 20:11 -4.16232 16.81088 23924 ft 343 kts 112°
2026-04-28 20:11 -4.17422 16.83145 23921 ft 342 kts 132°
2026-04-28 20:12 -4.19242 16.84655 23919 ft 341 kts 152°
2026-04-28 20:12 -4.21459 16.85444 23921 ft 340 kts 172°
2026-04-28 20:12 -4.23815 16.85627 23925 ft 340 kts 179°
2026-04-28 20:12 -4.25383 16.85662 23923 ft 340 kts 180°
2026-04-28 20:13 -4.28547 16.85636 23928 ft 340 kts 181°
2026-04-28 20:13 -4.30913 16.85588 23926 ft 340 kts 181°
2026-04-28 20:13 -4.33278 16.85545 23926 ft 340 kts 181°
2026-04-28 20:13 -4.35648 16.85515 23926 ft 340 kts 181°
2026-04-28 20:14 -4.38005 16.85406 23919 ft 339 kts 191°
2026-04-28 20:14 -4.40219 16.84644 23924 ft 337 kts 211°
2026-04-28 20:14 -4.42024 16.83176 23923 ft 335 kts 231°
2026-04-28 20:14 -4.43221 16.81182 23926 ft 335 kts 250°
2026-04-28 20:15 -4.43673 16.78899 23925 ft 336 kts 269°
2026-04-28 20:15 -4.43334 16.76588 23928 ft 337 kts 289°
2026-04-28 20:15 -4.42236 16.74527 23932 ft 338 kts 308°
2026-04-28 20:15 -4.40521 16.72972 23927 ft 339 kts 328°
2026-04-28 20:16 -4.38342 16.72082 23932 ft 341 kts 348°
2026-04-28 20:16 -4.35978 16.71855 23935 ft 343 kts 357°
2026-04-28 20:16 -4.33591 16.71808 23932 ft 343 kts 359°
2026-04-28 20:16 -4.31203 16.71831 23931 ft 344 kts
2026-04-28 20:17 -4.28814 16.71752 23926 ft 343 kts 348°
2026-04-28 20:17 -4.26592 16.70941 23928 ft 341 kts 328°
2026-04-28 20:17 -4.24799 16.69411 23930 ft 340 kts 308°
2026-04-28 20:17 -4.23631 16.67373 23928 ft 339 kts 288°
2026-04-28 20:18 -4.23232 16.65058 23927 ft 338 kts 268°
2026-04-28 20:18 -4.23311 16.63501 23929 ft 339 kts 266°
2026-04-28 20:18 -4.23507 16.60345 23929 ft 339 kts 266°
2026-04-28 20:18 -4.23649 16.57989 23929 ft 339 kts 266°
2026-04-28 20:19 -4.23788 16.55625 23930 ft 340 kts 266°
2026-04-28 20:19 -4.23924 16.53265 23929 ft 339 kts 266°
2026-04-28 20:19 -4.24057 16.50907 23932 ft 339 kts 266°
2026-04-28 20:19 -4.24188 16.48548 23934 ft 339 kts 266°
2026-04-28 20:20 -4.24322 16.46186 23931 ft 339 kts 266°
2026-04-28 20:20 -4.24458 16.43823 23931 ft 339 kts 266°
2026-04-28 20:20 -4.24594 16.41467 23931 ft 339 kts 266°
2026-04-28 20:20 -4.24729 16.39104 23931 ft 340 kts 266°
2026-04-28 20:21 -4.24863 16.36748 23931 ft 339 kts 266°
2026-04-28 20:21 -4.24996 16.34382 23936 ft 339 kts 266°
2026-04-28 20:21 -4.25130 16.32019 23934 ft 340 kts 266°
2026-04-28 20:21 -4.25264 16.29657 23935 ft 342 kts 266°
2026-04-28 20:22 -4.25407 16.27203 23938 ft 365 kts 266°
2026-04-28 20:22 -4.25558 16.24613 23937 ft 377 kts 266°
2026-04-28 20:22 -4.25710 16.21975 23937 ft 381 kts 266°
2026-04-28 20:22 -4.25861 16.19325 23936 ft 382 kts 266°
2026-04-28 20:23 -4.26011 16.16672 23932 ft 382 kts 266°
2026-04-28 20:23 -4.26161 16.14030 23279 ft 389 kts 266°
2026-04-28 20:23 -4.26315 16.11335 22878 ft 382 kts 266°
2026-04-28 20:23 -4.26467 16.08671 22515 ft 374 kts 266°
2026-04-28 20:24 -4.26613 16.06092 21626 ft 382 kts 266°
2026-04-28 20:24 -4.26764 16.03412 20852 ft 387 kts 266°
2026-04-28 20:24 -4.26914 16.00719 20240 ft 385 kts 266°
2026-04-28 20:24 -4.27065 15.98051 19481 ft 382 kts 266°
2026-04-28 20:25 -4.27214 15.95398 18751 ft 380 kts 266°
2026-04-28 20:25 -4.27364 15.92772 17940 ft 375 kts 266°
2026-04-28 20:25 -4.27514 15.90178 16945 ft 371 kts 266°
2026-04-28 20:25 -4.27662 15.87616 16015 ft 366 kts 266°
2026-04-28 20:26 -4.27807 15.85086 15154 ft 361 kts 266°
2026-04-28 20:26 -4.27948 15.82616 14634 ft 352 kts 266°
2026-04-28 20:26 -4.28086 15.80180 13902 ft 349 kts 266°
2026-04-28 20:26 -4.28223 15.77751 12905 ft 349 kts 266°
2026-04-28 20:27 -4.28360 15.75335 11921 ft 347 kts 266°
2026-04-28 20:27 -4.28496 15.72931 10971 ft 344 kts 266°
2026-04-28 20:27 -4.28630 15.70549 10037 ft 341 kts 266°
2026-04-28 20:27 -4.28762 15.68191 9053 ft 337 kts 266°
2026-04-28 20:28 -4.28894 15.65858 8073 ft 334 kts 266°
2026-04-28 20:28 -4.29025 15.63546 7116 ft 330 kts 266°
2026-04-28 20:28 -4.29153 15.61266 6185 ft 326 kts 266°
2026-04-28 20:28 -4.29411 15.59035 5206 ft 320 kts 252°
2026-04-28 20:29 -4.30483 15.57130 4409 ft 309 kts 225°
2026-04-28 20:29 -4.32191 15.55970 4136 ft 291 kts 199°
2026-04-28 20:29 -4.34115 15.55717 4016 ft 272 kts 171°
2026-04-28 20:29 -4.35792 15.56359 3991 ft 250 kts 142°
2026-04-28 20:30 -4.36814 15.57643 3992 ft 228 kts 110°
2026-04-28 20:30 -4.36948 15.59136 3994 ft 212 kts 76°
2026-04-28 20:30 -4.36210 15.60381 3993 ft 212 kts 40°
2026-04-28 20:30 -4.34866 15.60963 3995 ft 216 kts
2026-04-28 20:31 -4.33397 15.60676 3992 ft 219 kts 336°
2026-04-28 20:31 -4.32097 15.59863 3867 ft 225 kts 318°
2026-04-28 20:31 -4.31212 15.58579 3603 ft 223 kts 290°
2026-04-28 20:31 -4.30974 15.57065 3424 ft 220 kts 265°
2026-04-28 20:32 -4.31386 15.55614 3203 ft 217 kts 240°
2026-04-28 20:32 -4.32190 15.54345 2941 ft 213 kts 236°
2026-04-28 20:32 -4.32971 15.53142 2680 ft 200 kts 237°
2026-04-28 20:32 -4.33704 15.52006 2432 ft 189 kts 237°
2026-04-28 20:33 -4.34395 15.50935 2229 ft 176 kts 237°
2026-04-28 20:33 -4.35037 15.49939 2004 ft 164 kts 237°
2026-04-28 20:33 -4.35627 15.49025 1812 ft 147 kts 237°
2026-04-28 20:33 -4.36159 15.48197 1610 ft 136 kts 237°
2026-04-28 20:34 -4.36661 15.47411 1415 ft 132 kts 237°
2026-04-28 20:34 -4.37149 15.46636 1277 ft 132 kts 237°
2026-04-28 20:34 -4.37650 15.45869 1153 ft 131 kts 236°
2026-04-28 20:34 -4.38147 15.45108 1059 ft 131 kts 236°
2026-04-28 20:35 -4.38602 15.44407 1022 ft 102 kts 237°
2026-04-28 20:35 -4.38918 15.43922 1017 ft 67 kts 237°
2026-04-28 20:35 -4.39111 15.43623 1017 ft 43 kts 237°
2026-04-28 20:35 -4.39268 15.43378 1016 ft 41 kts 237°
2026-04-28 20:36 -4.39402 15.43171 1013 ft 34 kts 237°
2026-04-28 20:36 -4.39535 15.42963 1011 ft 37 kts 237°
2026-04-28 20:36 -4.39679 15.42785 1009 ft 17 kts 211°
2026-04-28 20:36 -4.39685 15.42747 1009 ft 3 kts 318°
2026-04-28 20:37 -4.39652 15.42778 1009 ft 17 kts 58°
2026-04-28 20:37 -4.39559 15.42930 1010 ft 29 kts 57°
2026-04-28 20:37 -4.39445 15.43104 1013 ft 31 kts 57°
2026-04-28 20:37 -4.39327 15.43293 1016 ft 33 kts 57°
2026-04-28 20:38 -4.39197 15.43489 1016 ft 35 kts 56°
2026-04-28 20:38 -4.39063 15.43696 1016 ft 36 kts 57°
2026-04-28 20:38 -4.38924 15.43911 1017 ft 37 kts 57°
2026-04-28 20:38 -4.38839 15.44069 1018 ft 16 kts 98°
2026-04-28 20:39 -4.38928 15.44142 1019 ft 18 kts 148°
2026-04-28 20:39 -4.38959 15.44213 1019 ft 9 kts 45°
2026-04-28 20:39 -4.38917 15.44276 1019 ft 13 kts 58°
2026-04-28 20:39 -4.38864 15.44356 1020 ft 14 kts 56°
2026-04-28 20:40 -4.38818 15.44431 1021 ft 8 kts 68°
2026-04-28 20:40 -4.38838 15.44471 1020 ft 7 kts 148°
2026-04-28 20:40 -4.38879 15.44496 1020 ft 7 kts 148°
2026-04-28 20:40 -4.38885 15.44500 1020 ft 0 kts 148°